Location: Observatory Park - Geauga Park District
(41.5832°N, 81.0716°W)
Time: 01:51:53
(UTC-04:00)

Tiangong - Pass Details

Date: 01 October 2021
Orbit: 382 x 385 km, 41.5° (Epoch: 16 October)

Event Time Altitude Azimuth Distance (km) Brightness Sun altitude
Exits shadow 05:58:50 47° 264° (W) 514 1.2 -16.2°
Maximum altitude 05:59:38 88° 175° (S) 384 0.9 -16.1°
Drops below altitude 10° 06:02:47 10° 87° (E) 1,393 5.3 -15.5°
Sets 06:04:51 0° 87° (E) 2,245 6.8 -15.1°
